TimeEST,TemperatureF,Dew PointF,Humidity,Sea Level PressureIn,VisibilityMPH,Wind Direction,Wind SpeedMPH,Gust SpeedMPH,PrecipitationIn,Events,Conditions,WindDirDegrees,DateUTC
12:53 AM,62.1,60.1,93,30.05,10.0,NW,9.2,-,N/A,,Clear,310,2013-01-22 05:53:00
1:53 AM,62.1,59.0,90,30.05,10.0,NW,8.1,-,N/A,,Clear,320,2013-01-22 06:53:00
2:53 AM,62.1,57.9,86,30.04,10.0,NNW,6.9,-,N/A,,Clear,330,2013-01-22 07:53:00
3:53 AM,63.0,57.9,84,30.03,10.0,North,10.4,-,N/A,,Clear,350,2013-01-22 08:53:00
4:53 AM,63.0,55.9,78,30.04,10.0,North,11.5,-,N/A,,Clear,350,2013-01-22 09:53:00
5:53 AM,63.0,53.1,70,30.06,10.0,North,9.2,-,N/A,,Clear,360,2013-01-22 10:53:00
6:53 AM,57.9,52.0,81,30.09,10.0,NW,5.8,-,N/A,,Clear,310,2013-01-22 11:53:00
7:53 AM,59.0,53.1,81,30.12,10.0,NW,5.8,-,N/A,,Clear,310,2013-01-22 12:53:00
8:53 AM,63.0,54.0,72,30.14,10.0,NW,6.9,-,N/A,,Clear,320,2013-01-22 13:53:00
9:53 AM,66.9,55.0,66,30.16,10.0,North,12.7,-,N/A,,Clear,350,2013-01-22 14:53:00
10:53 AM,69.1,55.9,63,30.17,10.0,North,17.3,25.3,N/A,,Clear,360,2013-01-22 15:53:00
11:53 AM,69.1,54.0,58,30.18,10.0,North,19.6,26.5,N/A,,Clear,360,2013-01-22 16:53:00
12:53 PM,69.1,51.1,53,30.17,10.0,North,23.0,28.8,N/A,,Clear,350,2013-01-22 17:53:00
1:53 PM,68.0,50.0,52,30.16,10.0,North,19.6,27.6,N/A,,Clear,360,2013-01-22 18:53:00
2:53 PM,66.0,48.9,54,30.15,10.0,North,13.8,27.6,N/A,,Clear,360,2013-01-22 19:53:00
3:53 PM,64.9,48.9,56,30.17,10.0,North,17.3,26.5,N/A,,Clear,350,2013-01-22 20:53:00
4:53 PM,64.0,50.0,60,30.19,10.0,North,15.0,24.2,N/A,,Clear,360,2013-01-22 21:53:00
5:53 PM,63.0,48.0,58,30.21,10.0,North,16.1,21.9,N/A,,Clear,360,2013-01-22 22:53:00
6:53 PM,63.0,46.0,54,30.22,10.0,North,13.8,23.0,N/A,,Clear,360,2013-01-22 23:53:00
7:53 PM,62.1,46.9,58,30.23,10.0,North,12.7,-,N/A,,Clear,360,2013-01-23 00:53:00
8:53 PM,62.1,46.9,58,30.25,10.0,North,11.5,-,N/A,,Clear,10,2013-01-23 01:53:00
9:53 PM,62.1,46.9,58,30.25,10.0,North,8.1,-,N/A,,Clear,10,2013-01-23 02:53:00
10:53 PM,62.1,46.9,58,30.26,10.0,North,8.1,-,N/A,,Clear,360,2013-01-23 03:53:00
11:53 PM,61.0,48.0,62,30.26,10.0,North,5.8,-,N/A,,Clear,360,2013-01-23 04:53:00